SR9WXM Weather Reports


Display with metric or nautical units.
time (UTC)temp
F
wind
direction
speed
MPH
gust
MPH
rain 1hr
in
rain 24hr
in
rain mn
in
humidity
%
barometer
mb
20260506091402 59 217 8.0 14.0 0.00 0.00 0.00 100
20260506091002 58 236 8.0 11.0 0.00 0.00 0.00 100
20260506090600 58 202 8.0 13.0 0.00 0.00 0.00 100
20260506090200 58 203 9.0 14.0 0.00 0.00 0.00 100
20260506085800 58 217 9.0 13.0 0.00 0.00 0.00 100
20260506085400 58 218 10.0 13.0 0.00 0.00 0.00 100
20260506085000 58 177 7.0 9.0 0.00 0.00 0.00 100
20260506084558 58 198 9.0 13.0 0.00 0.00 0.00 100
20260506084158 58 201 10.0 13.0 0.00 0.00 0.00 100
20260506083758 58 192 11.0 17.0 0.00 0.00 0.00 100
20260506083358 57 191 8.0 14.0 0.00 0.00 0.00 100
20260506082958 57 192 8.0 16.0 0.00 0.00 0.00 100
20260506082556 57 212 10.0 16.0 0.00 0.00 0.00 100
20260506082156 57 207 10.0 14.0 0.00 0.00 0.00 100
20260506081749 57 185 10.0 14.0 0.00 0.00 0.00 100
20260506081349 57 196 10.0 15.0 0.00 0.00 0.00 100
20260506080951 57 206 8.0 16.0 0.00 0.00 0.00 100
20260506080547 57 186 9.0 13.0 0.00 0.00 0.00 100
20260506080145 56 227 9.0 14.0 0.00 0.00 0.00 100
20260506073343 55 157 9.0 17.0 0.00 0.00 0.00 100
20260506072942 55 172 8.0 12.0 0.00 0.00 0.00 100
20260506072540 54 177 10.0 16.0 0.00 0.00 0.00 100
20260506072140 54 209 9.0 14.0 0.00 0.00 0.00 100
20260506071740 54 191 9.0 12.0 0.00 0.00 0.00 100
20260506071340 54 188 9.0 15.0 0.00 0.00 0.00 100
20260506070940 53 226 8.0 14.0 0.00 0.00 0.00 100
20260506070538 53 199 8.0 13.0 0.00 0.00 0.00 100
20260506070138 53 210 10.0 13.0 0.00 0.00 0.00 100
20260506062133 50 195 8.0 11.0 0.00 0.00 0.00 100
20260506061733 50 195 8.0 13.0 0.00 0.00 0.00 100
20260506061334 50 166 9.0 12.0 0.00 0.00 0.00 100
20260506060933 50 166 10.0 12.0 0.00 0.00 0.00 100
20260506060531 50 210 10.0 14.0 0.00 0.00 0.00 100
20260506060131 51 208 8.0 12.0 0.00 0.00 0.00 100
20260506051317 48 203 12.0 17.0 0.00 0.00 0.00 100
20260506050917 48 169 12.0 19.0 0.00 0.00 0.00 100
20260506050515 48 196 14.0 20.0 0.00 0.00 0.00 100
20260506050115 48 198 11.0 18.0 0.00 0.00 0.00 100
20260506044915 48 168 12.0 17.0 0.00 0.00 0.00 100
20260506044513 48 163 11.0 15.0 0.00 0.00 0.00 100
20260506044113 48 180 12.0 18.0 0.00 0.00 0.00 100
20260506043713 48 159 12.0 17.0 0.00 0.00 0.00 100
20260506043313 48 169 11.0 19.0 0.00 0.00 0.00 100
20260506042913 48 193 12.0 17.0 0.00 0.00 0.00 100
20260506042511 48 150 11.0 18.0 0.00 0.00 0.00 100
20260506042111 48 193 13.0 20.0 0.00 0.00 0.00 100
20260506041712 48 168 11.0 18.0 0.00 0.00 0.00 100
20260506041312 48 199 12.0 20.0 0.00 0.00 0.00 100
20260506040912 48 172 10.0 17.0 0.00 0.00 0.00 100
20260506040510 49 184 13.0 22.0 0.00 0.00 0.00 100
20260506040110 49 196 14.0 20.0 0.00 0.00 0.00 100
20260506035710 49 194 13.0 20.0 0.00 0.00 0.00 100
20260506035308 49 184 13.0 19.0 0.00 0.00 0.00 100
20260506034908 49 176 14.0 24.0 0.00 0.00 0.00 100
20260506034506 49 174 12.0 18.0 0.00 0.00 0.00 100
20260506034106 49 175 15.0 21.0 0.00 0.00 0.00 100
20260506033706 49 175 13.0 25.0 0.00 0.00 0.00 100
20260506033306 49 194 16.0 24.0 0.00 0.00 0.00 100
20260506032906 49 150 13.0 20.0 0.00 0.00 0.00 100
20260506032504 49 176 15.0 22.0 0.00 0.00 0.00 100
20260506032104 49 177 12.0 17.0 0.00 0.00 0.00 100
20260506031704 49 182 15.0 25.0 0.00 0.00 0.00 100
20260506031304 49 163 13.0 18.0 0.00 0.00 0.00 100
20260506030857 49 168 16.0 26.0 0.00 0.00 0.00 100
20260506030454 49 151 12.0 20.0 0.00 0.00 0.00 100
20260506030054 49 191 14.0 21.0 0.00 0.00 0.00 100
20260506025656 49 150 13.0 21.0 0.00 0.00 0.00 100
20260506025255 49 176 12.0 18.0 0.00 0.00 0.00 100
20260506024855 50 192 12.0 18.0 0.00 0.00 0.00 100
20260506024453 50 134 9.0 16.0 0.00 0.00 0.00 100
20260506024053 50 172 10.0 17.0 0.00 0.00 0.00 100
20260506023653 50 181 15.0 20.0 0.00 0.00 0.00 100
20260506023253 50 182 13.0 24.0 0.00 0.00 0.00 100
20260506022853 51 180 16.0 25.0 0.00 0.00 0.00 100
20260506022451 51 178 15.0 24.0 0.00 0.00 0.00 100
20260506022051 51 186 14.0 20.0 0.00 0.00 0.00 100
20260506021651 51 199 13.0 19.0 0.00 0.00 0.00 100
20260506021251 51 199 16.0 23.0 0.00 0.00 0.00 100
20260506020851 51 198 17.0 30.0 0.00 0.00 0.00 100
20260506020449 51 190 15.0 20.0 0.00 0.00 0.00 100
20260506020049 51 184 17.0 28.0 0.00 0.00 0.00 100
20260506015649 51 200 18.0 29.0 0.00 0.00 0.00 100
20260506015249 51 194 18.0 31.0 0.00 0.00 0.00 100
20260506014849 51 208 21.0 28.0 0.00 0.00 0.00 100
20260506014447 52 201 20.0 24.0 0.00 0.00 0.00 100
20260506014047 52 192 19.0 28.0 0.00 0.00 0.00 100
20260506013647 52 199 20.0 26.0 0.00 0.00 0.00 100
20260506013247 52 188 20.0 28.0 0.00 0.00 0.00 100
20260506012847 52 189 19.0 27.0 0.00 0.00 0.00 100
20260506012445 52 191 19.0 26.0 0.00 0.00 0.00 100
20260506012044 52 185 18.0 26.0 0.00 0.00 0.00 100
20260506011644 52 186 16.0 24.0 0.00 0.00 0.00 100
20260506011244 52 179 15.0 25.0 0.00 0.00 0.00 100
20260506010844 52 184 14.0 26.0 0.00 0.00 0.00 100
20260506010442 53 192 14.0 19.0 0.00 0.00 0.00 100
20260506010042 53 178 15.0 26.0 0.00 0.00 0.00 100
20260506005642 53 169 15.0 23.0 0.00 0.00 0.00 100
20260506005242 53 200 18.0 24.0 0.00 0.00 0.00 100
20260506004842 53 195 20.0 26.0 0.00 0.00 0.00 100
20260506004440 53 172 18.0 26.0 0.00 0.00 0.00 100
20260506004040 53 161 16.0 25.0 0.00 0.00 0.00 100
20260506003641 53 190 16.0 30.0 0.00 0.00 0.00 100
20260506003231 53 178 17.0 30.0 0.00 0.00 0.00 100
20260506002831 53 167 15.0 23.0 0.00 0.00 0.00 100
20260506002429 53 190 19.0 27.0 0.00 0.00 0.00 100
20260506002029 53 192 16.0 23.0 0.00 0.00 0.00 100
20260506001629 53 201 17.0 23.0 0.00 0.00 0.00 100
20260506001229 54 185 15.0 23.0 0.00 0.00 0.00 100
20260506000829 54 180 14.0 26.0 0.00 0.00 0.00 100
20260506000427 54 187 17.0 29.0 0.00 0.00 0.00 100
20260506000028 54 187 15.0 23.0 0.00 0.00 0.00 100
20260505235628 54 183 15.0 21.0 0.00 0.00 0.00 100
20260505235228 54 189 14.0 18.0 0.00 0.00 0.00 100
20260505234828 54 184 11.0 18.0 0.00 0.00 0.00 100
20260505234426 54 180 10.0 14.0 0.00 0.00 0.00 100
20260505234024 53 204 14.0 21.0 0.00 0.00 0.00 100
20260505233624 53 198 10.0 14.0 0.00 0.00 0.00 100
20260505233224 53 199 9.0 15.0 0.00 0.00 0.00 100
20260505232824 53 184 12.0 21.0 0.00 0.00 0.00 100
20260505232421 53 195 12.0 20.0 0.00 0.00 0.00 100
20260505232021 53 188 12.0 20.0 0.00 0.00 0.00 100
20260505231621 53 196 11.0 17.0 0.00 0.00 0.00 100
20260505231221 53 198 10.0 14.0 0.00 0.00 0.00 100
20260505230823 53 186 10.0 16.0 0.00 0.00 0.00 100
20260505230420 53 200 9.0 15.0 0.00 0.00 0.00 100
20260505230019 53 200 10.0 14.0 0.00 0.00 0.00 100
20260505225619 53 197 9.0 11.0 0.00 0.00 0.00 100
20260505225219 53 189 10.0 15.0 0.00 0.00 0.00 100
20260505224819 53 194 10.0 15.0 0.00 0.00 0.00 100
20260505224417 53 191 10.0 14.0 0.00 0.00 0.00 100
20260505224017 53 195 11.0 15.0 0.00 0.00 0.00 100
20260505223617 54 197 10.0 14.0 0.00 0.00 0.00 100
20260505223217 54 178 10.0 17.0 0.00 0.00 0.00 100
20260505222817 54 205 11.0 17.0 0.00 0.00 0.00 100
20260505222415 54 195 12.0 16.0 0.00 0.00 0.00 100
20260505222014 54 203 11.0 20.0 0.00 0.00 0.00 100
20260505221614 54 185 12.0 17.0 0.00 0.00 0.00 100
20260505221214 54 203 12.0 23.0 0.00 0.00 0.00 100
20260505220815 54 191 13.0 17.0 0.00 0.00 0.00 100
20260505220412 54 185 14.0 20.0 0.00 0.00 0.00 100
20260505220013 54 193 13.0 19.0 0.00 0.00 0.00 100
20260505215605 55 189 14.0 19.0 0.00 0.00 0.00 100
20260505215205 55 188 13.0 21.0 0.00 0.00 0.00 100
20260505214805 55 177 14.0 23.0 0.00 0.00 0.00 100
20260505214406 55 198 14.0 21.0 0.00 0.00 0.00 100
20260505214004 55 184 14.0 19.0 0.00 0.00 0.00 100
20260505213603 55 205 15.0 22.0 0.00 0.00 0.00 100
20260505213203 55 186 13.0 21.0 0.00 0.00 0.00 100
20260505212803 55 179 12.0 22.0 0.00 0.00 0.00 100
20260505212401 55 194 16.0 24.0 0.00 0.00 0.00 100
20260505212001 56 195 17.0 25.0 0.00 0.00 0.00 100
20260505211600 56 197 16.0 24.0 0.00 0.00 0.00 100
20260505211203 56 184 14.0 21.0 0.00 0.00 0.00 100
20260505210801 56 184 18.0 26.0 0.00 0.00 0.00 100
20260505210359 56 186 16.0 24.0 0.00 0.00 0.00 100
20260505205959 56 193 16.0 22.0 0.00 0.00 0.00 100
20260505205558 56 195 18.0 23.0 0.00 0.00 0.00 100
20260505205158 56 193 15.0 21.0 0.00 0.00 0.00 100
20260505204758 56 196 15.0 24.0 0.00 0.00 0.00 100
20260505204356 56 198 14.0 21.0 0.00 0.00 0.00 100
20260505203956 56 200 15.0 23.0 0.00 0.00 0.00 100
20260505203556 56 202 14.0 19.0 0.00 0.00 0.00 100
20260505203156 57 194 14.0 20.0 0.00 0.00 0.00 100
20260505202756 57 190 18.0 23.0 0.00 0.00 0.00 100
20260505202354 57 188 13.0 19.0 0.00 0.00 0.00 100
20260505201954 57 187 14.0 20.0 0.00 0.00 0.00 100
20260505201554 57 185 14.0 24.0 0.00 0.00 0.00 100
20260505201154 57 180 15.0 21.0 0.00 0.00 0.00 100
20260505200754 57 189 15.0 24.0 0.00 0.00 0.00 100
20260505200352 57 196 15.0 21.0 0.00 0.00 0.00 100
20260505195952 57 202 14.0 21.0 0.00 0.00 0.00 100
20260505195552 58 189 12.0 16.0 0.00 0.00 0.00 100
20260505195152 58 202 14.0 21.0 0.00 0.00 0.00 100
20260505194752 58 191 13.0 19.0 0.00 0.00 0.00 100
20260505194350 58 187 14.0 20.0 0.00 0.00 0.00 100
20260505193950 58 185 12.0 16.0 0.00 0.00 0.00 100
20260505193550 58 193 17.0 26.0 0.00 0.00 0.00 100
20260505193148 58 210 11.0 17.0 0.00 0.00 0.00 100
20260505192748 58 190 13.0 23.0 0.00 0.00 0.00 100
20260505192337 58 195 12.0 18.0 0.00 0.00 0.00 100
20260505191936 58 180 12.0 18.0 0.00 0.00 0.00 100
20260505191536 58 199 11.0 18.0 0.00 0.00 0.00 100
20260505191136 58 207 12.0 20.0 0.00 0.00 0.00 100
20260505190736 58 196 14.0 20.0 0.00 0.00 0.00 100
20260505190334 58 202 11.0 18.0 0.00 0.00 0.00 100
20260505185934 58 218 11.0 16.0 0.00 0.00 0.00 100
20260505185533 58 206 10.0 16.0 0.00 0.00 0.00 100
20260505185133 58 187 11.0 18.0 0.00 0.00 0.00 100
20260505184733 58 207 10.0 17.0 0.00 0.00 0.00 100
20260505184332 58 200 10.0 14.0 0.00 0.00 0.00 100
20260505183932 59 197 10.0 13.0 0.00 0.00 0.00 100
20260505183531 58 208 9.0 14.0 0.00 0.00 0.00 100
20260505183131 59 209 11.0 19.0 0.00 0.00 0.00 100
20260505182731 59 197 9.0 12.0 0.00 0.00 0.00 100
20260505182329 59 203 11.0 19.0 0.00 0.00 0.00 100
20260505181929 59 203 10.0 18.0 0.00 0.00 0.00 100
20260505181529 59 192 12.0 17.0 0.00 0.00 0.00 100
20260505181129 60 177 13.0 21.0 0.00 0.00 0.00 100
20260505180729 60 192 13.0 20.0 0.00 0.00 0.00 100
20260505180327 60 186 17.0 23.0 0.00 0.00 0.00 100
20260505175927 60 190 16.0 22.0 0.00 0.00 0.00 100
20260505175526 60 185 15.0 26.0 0.00 0.00 0.00 100
20260505175126 60 167 17.0 25.0 0.00 0.00 0.00 100
20260505174726 61 202 16.0 23.0 0.00 0.00 0.00 100
20260505174325 61 190 16.0 21.0 0.00 0.00 0.00 100
20260505173925 61 192 13.0 19.0 0.00 0.00 0.00 100
20260505173525 61 179 14.0 22.0 0.00 0.00 0.00 100
20260505173125 61 199 13.0 22.0 0.00 0.00 0.00 100
20260505172725 62 197 15.0 25.0 0.00 0.00 0.00 100
20260505172323 62 192 13.0 24.0 0.00 0.00 0.00 100
20260505171923 62 209 14.0 29.0 0.00 0.00 0.00 100
20260505171522 62 200 14.0 22.0 0.00 0.00 0.00 100
20260505171122 62 192 14.0 19.0 0.00 0.00 0.00 100
20260505170722 62 204 15.0 21.0 0.00 0.00 0.00 100
20260505170320 63 216 13.0 20.0 0.00 0.00 0.00 100
20260505165920 63 214 10.0 16.0 0.00 0.00 0.00 100
20260505165520 63 204 15.0 18.0 0.00 0.00 0.00 100
20260505165120 63 234 11.0 19.0 0.00 0.00 0.00 100
20260505164713 63 216 13.0 20.0 0.00 0.00 0.00 100
20260505164311 64 204 13.0 22.0 0.00 0.00 0.00 100
20260505163911 63 207 13.0 19.0 0.00 0.00 0.00 100
20260505163511 63 204 13.0 23.0 0.00 0.00 0.00 100
20260505163111 63 201 14.0 22.0 0.00 0.00 0.00 100
20260505162711 63 204 14.0 21.0 0.00 0.00 0.00 100
20260505162309 64 212 11.0 16.0 0.00 0.00 0.00 100
20260505161909 64 214 13.0 18.0 0.00 0.00 0.00 100
20260505161509 64 219 10.0 16.0 0.00 0.00 0.00 100
20260505161109 64 207 11.0 21.0 0.00 0.00 0.00 100
20260505160709 63 211 12.0 20.0 0.00 0.00 0.00 100
20260505160307 63 208 12.0 20.0 0.00 0.00 0.00 100
20260505153106 64 195 20.0 26.0 0.00 0.00 0.00 100
20260505152706 64 191 18.0 26.0 0.00 0.00 0.00 100
20260505152305 65 186 20.0 30.0 0.00 0.00 0.00 100
20260505151902 65 202 18.0 31.0 0.00 0.00 0.00 100
20260505151502 65 198 18.0 28.0 0.00 0.00 0.00 100
20260505151101 66 211 14.0 20.0 0.00 0.00 0.00 100
20260505150701 66 219 10.0 15.0 0.00 0.00 0.00 100
20260505150332 65 208 11.0 19.0 0.00 0.00 0.00 100
20260505150259 65 208 11.0 19.0 0.00 0.00 0.00 100
20260505140645 65 195 17.0 28.0 0.00 0.00 0.00 100
20260505140243 66 200 16.0 24.0 0.00 0.00 0.00 100
20260505130236 66 193 16.0 31.0 0.00 0.00 0.00 100
20260505125036 65 198 18.0 34.0 0.00 0.00 0.00 100
20260505124635 64 198 15.0 20.0 0.00 0.00 0.00 100
20260505124233 64 210 14.0 22.0 0.00 0.00 0.00 100
20260505123833 63 203 16.0 28.0 0.00 0.00 0.00 100
20260505123433 63 207 14.0 20.0 0.00 0.00 0.00 100
20260505123034 63 204 13.0 19.0 0.00 0.00 0.00 100
20260505122633 63 192 14.0 21.0 0.00 0.00 0.00 100
20260505122231 63 196 13.0 24.0 0.00 0.00 0.00 100
20260505121831 63 192 17.0 25.0 0.00 0.00 0.00 100
20260505121431 63 201 13.0 19.0 0.00 0.00 0.00 100
20260505121031 64 196 16.0 23.0 0.00 0.00 0.00 100
20260505120631 64 206 14.0 23.0 0.00 0.00 0.00 100
20260505120229 65 208 14.0 22.0 0.00 0.00 0.00 100
20260505115829 64 195 14.0 21.0 0.00 0.00 0.00 100
20260505115429 64 213 11.0 15.0 0.00 0.00 0.00 100
20260505115029 64 193 14.0 24.0 0.00 0.00 0.00 100
20260505114629 64 199 14.0 21.0 0.00 0.00 0.00 100
20260505114227 63 207 12.0 23.0 0.00 0.00 0.00 100
20260505113827 63 191 13.0 20.0 0.00 0.00 0.00 100
20260505113420 63 196 14.0 25.0 0.00 0.00 0.00 100
20260505113020 64 199 15.0 24.0 0.00 0.00 0.00 100
20260505112620 64 202 14.0 24.0 0.00 0.00 0.00 100
20260505112217 65 189 13.0 21.0 0.00 0.00 0.00 100
20260505111818 65 191 15.0 24.0 0.00 0.00 0.00 100
20260505111418 65 218 12.0 21.0 0.00 0.00 0.00 100
20260505111015 66 191 18.0 29.0 0.00 0.00 0.00 100
20260505110615 66 193 16.0 24.0 0.00 0.00 0.00 100
20260505110213 66 196 15.0 25.0 0.00 0.00 0.00 100
20260505102208 66 195 17.0 26.0 0.00 0.00 0.00 100
20260505101808 66 198 14.0 24.0 0.00 0.00 0.00 100
20260505101408 66 195 14.0 21.0 0.00 0.00 0.00 100
20260505101008 66 195 17.0 27.0 0.00 0.00 0.00 100
20260505100608 66 202 14.0 25.0 0.00 0.00 0.00 100
20260505100206 66 203 15.0 26.0 0.00 0.00 0.00 100
20260505095806 66 204 16.0 22.0 0.00 0.00 0.00 100
20260505095406 66 196 19.0 27.0 0.00 0.00 0.00 100
20260505095006 65 203 12.0 18.0 0.00 0.00 0.00 100
20260505094605 65 203 16.0 24.0 0.00 0.00 0.00 100
20260505094304 65 184 16.0 21.0 0.00 0.00 0.00 100
20260505094203 65 184 16.0 21.0 0.00 0.00 0.00 100
20260505093839 64 200 15.0 27.0 0.00 0.00 0.00 100
20260505093803 64 200 15.0 27.0 0.00 0.00 0.00 100
20260505093403 64 200 19.0 29.0 0.00 0.00 0.00 100
20260505093004 64 200 18.0 25.0 0.00 0.00 0.00 100
20260505092603 64 207 13.0 19.0 0.00 0.00 0.00 100
20260505092201 64 196 14.0 23.0 0.00 0.00 0.00 100
20260505091801 64 205 14.0 22.0 0.00 0.00 0.00 100